Location: Bonny Doon Airfield
(37.0704°N, 122.1252°W)
Time: 00:11:00
(UTC-08:00)

OTV 5 (USA 277) - Pass Details

Date: 15 October 2017
Orbit: 404 x 417 km, 43.0° (Epoch: 07 September)

Event Time Altitude Azimuth Distance (km) Brightness Sun altitude
Rises 20:25:04 0° 291° (WNW) 2,353 ? -23.5°
Reaches altitude 10° 20:27:21 10° 303° (WNW) 1,490 ? -23.9°
Enters shadow 20:29:15 24° 331° (NNW) 906 ? -24.3°
